{"data":{"norad_id":59419,"epoch":"2026-09-21T16:04:19.457760Z","epoch_age_seconds":63803,"freshness":"FRESH","line1":"1 59419U 24064X   26264.66966965  .00000545  00000+0  29338-4 0  9999","line2":"2 59419  43.0051  29.7920 0001320 295.0796  64.9919 15.27580117139194","mean_motion":15.27580117,"eccentricity":0.000132,"inclination_deg":43.0051,"raan_deg":29.792,"arg_perigee_deg":295.0796,"mean_anomaly_deg":64.9919,"bstar":2.9338e-5,"rev_number":13919,"period_min":94.266741493599,"perigee_km":482.14306918115,"apogee_km":483.95442221802,"semimajor_km":6861.1857456996,"source":"CELESTRAK","updated_at":"2026-09-22T09:00:48.918687Z"}}